AirNav   Pilot Hours Calculator
 
 1443 users online  

M38 Hazel Green Airport
Hazel Green, Alabama, USA

GOING TO HAZEL GREEN?


FAA INFORMATION EFFECTIVE 11 AUGUST 2022

Location

FAA Identifier: M38
Lat/Long: 34-54-58.0750N 086-38-49.3650W
34-54.967917N 086-38.822750W
34.9161319,-86.6470458
(estimated)
Elevation: 814 ft. / 248 m (estimated)
Variation: 00W (1985)
From city: 4 miles W of HAZEL GREEN, AL
Time zone: UTC -5 (UTC -6 during Standard Time)
Zip code: 35773

Airport Operations

Airport use: Open to the public
Activation date: 01/1966
Control tower: no
ARTCC: MEMPHIS CENTER
FSS: ANNISTON FLIGHT SERVICE STATION
NOTAMs facility: ANB (NOTAM-D service available)
Attendance: TUE-SAT 0800-1700
Wind indicator: yes
Segmented circle: no
Lights: ACTVT LIRL RWY 07/25 - CTAF.
Beacon: white-green (lighted land airport)
Operates sunset to sunrise.

Airport Communications

CTAF/UNICOM: 122.8
HUNTSVILLE APPROACH: 125.6
HUNTSVILLE DEPARTURE: 125.6
WX AWOS-3PT at MDQ (6 nm SE): 120.000 (256-829-1242)
WX AWOS-3 at FYM (10 nm NE): 135.275 (931-433-5916)
WX ASOS at HSV (18 nm S): 121.25 (256-772-8074)
  • APCH/DEP SVC PRVDD BY MEMPHIS ARTCC ON FREQS 120.8/307.0 (HUNTSVILLE RCAG) WHEN HUNTSVILLE APCH CTL CLSD.

Nearby radio navigation aids

VOR radial/distance  VOR name  Freq  Var
RQZr353/7.2ROCKET VORTAC112.2002E

Airport Services

Fuel available: 100LL
Parking: tiedowns
Bottled oxygen: NONE
Bulk oxygen: NONE

Runway Information

Runway 7/25

Dimensions: 2670 x 40 ft. / 814 x 12 m
Surface: asphalt, in good condition
Weight bearing capacity: 
Single wheel: 10.0
Runway edge lights: low intensity
RUNWAY 7  RUNWAY 25
Latitude: 34-54.901000N34-55.034833N
Longitude: 086-39.077167W086-38.568333W
Elevation: 814.0 ft.814.0 ft.
Traffic pattern: leftleft
Displaced threshold: no545 ft.
Markings: basic, in good conditionbasic, in good condition
Obstructions: 65 ft. tree, 1433 ft. from runway, 139 ft. left of centerline, 18:1 slope to clear56 ft. trees, 200 ft. from runway, 75 ft. left of centerline
+77 FT TREES 167 FT TO 200 FT FM RWY THR, 75 FT LEFT OF CNTRLN.

Airport Ownership and Management from official FAA records

Ownership: Privately-owned
Owner: HAZEL GREEN FLYERS INC
342 OPP REYNOLDS RD
HAZEL GREEN, AL 35750
Phone 256-684-7424
Manager: MICHAEL BEDARD
386 OPP REYNOLDS ROAD
HAZEL GREEN, AL 35750
Phone 256-684-7424
BEDARD.MICHAEL@GMAIL.COM

Airport Operational Statistics

Aircraft based on the field: 20
Single engine airplanes: 18
Gliders airplanes: 2
    
Aircraft operations: avg 31/day *
71% transient general aviation
29% local general aviation
* for 12-month period ending 07 July 2010

Additional Remarks

TWY LGTS FOR TWY TURNOFF ONLY.
FOR CD CTC HUNTSVILLE APCH AT 256-542-2070, WHEN APCH CLSD CTC MEMPHIS ARTCC AT 901-368-8453/8449.
FUEL FOR HGF, INC MEMBERS ONLY.

Instrument Procedures

There are no published instrument procedures at M38.

Some nearby airports with instrument procedures:

KMDQ - Huntsville Executive Airport / Tom Sharp Jr Field (6 nm SE)
KFYM - Fayetteville Municipal Airport (10 nm NE)
KHUA - Redstone Army Airfield (14 nm S)
KHSV - Huntsville International Airport-Carl T Jones Field (18 nm S)
KDCU - Pryor Field Regional Airport (22 nm SW)
 
Loc | Ops | Rwys | IFR | FBO | Links
Com | Nav | Svcs | Stats | Notes
Area around M38 (Hazel Green Airport)
 
Road maps at: MapQuest Bing Google
 
Aerial photo
WARNING: Photo may not be current or correct
Aerial photo of M38 (Hazel Green Airport)
Photo taken 07-May-2011
looking northwest.

Do you have a better or more recent aerial photo of Hazel Green Airport that you would like to share? If so, please send us your photo.

 
Sectional chart

 
Airport distance calculator
Flying to Hazel Green Airport? Find the distance to fly.

From to M38

Sunrise and sunset
Times for 11-Aug-2022
 Local
(UTC-5)
 Zulu
(UTC)
Morning civil twilight05:3810:38
Sunrise06:0511:05
Sunset19:3900:39
Evening civil twilight20:0601:06

Current date and time
Zulu (UTC)  11-Aug-2022 21:46:43
Local (UTC-5)  11-Aug-2022 16:46:43
 
METAR
KMDQ 
6nm SE 
112135Z AUTO 33006KT 10SM CLR 30/22 A3001 RMK A02 LTG DSNT W T02970218
KFYM 
10nm NE 
112140Z AUTO 00000KT 10SM FEW085 29/23 A3003 RMK A01
KHUA 
14nm S 
111958Z 00000KT 7SM SCT033 30/21 A3002
KHSV 
17nm SW 
112053Z VRB03KT 10SM FEW041 SCT250 32/22 A3001 RMK AO2 SLP153 T03170222 56022
TAF
KHUA 
14nm S 
112000Z 1120/1302 VRB06KT 9999 SCT030 QNH3000INS TEMPO 1120/1200 VRB15G25KT 2400 +TSRA FEW002 BKN025CB BKN055 BECMG 1200/1201 36006KT 9999 BKN028 QNH3002INS BECMG 1203/1204 36006KT 9999 FEW020 QNH3004INS BECMG 1217/1218 02012KT 9999 SCT040 QNH3001INS TX31/1121Z TN22/1211Z LAST NO AMDS AFT 1200 NEXT 1212
KHSV 
17nm SW 
111742Z 1118/1218 20004KT P6SM SCT020 SCT040 FM111900 22005KT P6SM VCTS SCT021CB TEMPO 1120/1122 VRB10G25KT 4SM TSRA BR BKN030CB BKN080 FM112200 28006KT 6SM SHRA BR VCTS SCT040CB BKN070 TEMPO 1122/1202 5SM -TSRA BR BKN025CB OVC060 FM120500 34003KT P6SM SCT030 BKN130 OVC200 FM121700 02009KT P6SM SCT250
NOTAMs
Click for the latest NOTAMs
NOTAMs are issued by the DoD/FAA and will open in a separate window not controlled by AirNav.

 

 
 

Aviation Businesses, Services, and Facilities

  
 Business Name 
 
 Contact 
 
 Services / Description 
 
Distance
 
Comments
  
Hazel Green Flyers 256-534-2801
no information available

If you are affiliated with Hazel Green Flyers and would like to show here your services, contact info, web link, logo, and more, click here
on airport  
   write
 

Would you like to see your business listed on this page?

 If your business provides an interesting product or service to pilots, flight crews, aircraft, or users of the Hazel Green Airport, you should consider listing it here.  To start the listing process, click on the button below
 
Add a business
 

Other Pages about Hazel Green Airport

Update a link
 
Copyright © AirNav, LLC. All rights reserved. Privacy Policy  Contact